Regional Weather Roundup
Issued by NWS

Home | Current Version | Previous Version | Text Only | Print | Product List | Glossary Off
Versions: 1 2 3 4 5 6 7 8 9 10 11 12 13 14 15 16 17 18 19 20 21 22 23 24 25 26 27 28 29 30 31 32 33 34 35 36 37 38 39 40 41 42 43 44 45 46 47 48 49 50

000
ASUS43 KTOP 231708
RWRKS

WEATHER ROUNDUP FOR KANSAS
NATIONAL WEATHER SERVICE GOODLAND KS
1200 PM CDT TUE AUG 23 2016

NOTE:  "FAIR" INDICATES FEW OR NO CLOUDS BELOW 12,000 FEET WITH NO
SIGNIFICANT WEATHER AND/OR OBSTRUCTIONS TO VISIBILITY.

KSZ001>006-013>018-027>032-041>047-231800-
NORTHWEST KANSAS

CITY           SKY/WX    TMP DP  RH WIND       PRES   REMARKS
GOODLAND         N/A     82  55  39 NW12      29.91R
HAYS           SUNNY     88  63  42 SW26G32   29.85S
HILL CITY      SUNNY     86  64  47 S17G26    29.84S
RUSSELL        SUNNY     86  69  56 S23G33    29.85F
$$

KSZ061>065-074>080-084>089-231800-
SOUTHWEST KANSAS

CITY           SKY/WX    TMP DP  RH WIND       PRES   REMARKS
DODGE CITY     SUNNY     88  65  46 S26G32    29.91F
ELKHART          N/A     86  55  34 W13         N/A
GARDEN CITY    SUNNY     86  55  34 SW21      29.90F
GREAT BEND     SUNNY     88  66  48 S23G35    29.88F
LIBERAL        SUNNY     90  61  37 SW23G29   29.95F
PRATT          MOSUNNY   83  67  56 S29G35    29.95S
$$

KSZ066>073-081>083-090>101-231800-
SOUTHEAST KANSAS

CITY           SKY/WX    TMP DP  RH WIND       PRES   REMARKS
CHANUTE        CLOUDY    82  74  76 S20G29    30.04F
COFFEYVILLE    MOSUNNY   83  74  74 S18G28    30.06F
HUTCHINSON     MOSUNNY   86  71  60 S21G36    29.94F
MEDICINE LODGE   N/A     84  70  62 S16G26    29.95F
NEWTON         CLOUDY    83  73  72 S23G32    29.97S
PARSONS        CLOUDY    83  73  72 S16G24    30.07F
WICHITA INTL   CLOUDY    83  73  72 S25G32    29.97F
WICHITA JABRA  CLOUDY    81  73  76 S18G26    29.98F
WICHITA MCCONL CLOUDY    81  73  75 SW18G28   29.99S
WINFIELD       CLOUDY    83  75  77 S18G24    30.02F
$$

KSZ007>012-019>026-033>040-048>060-102>105-231800-
NORTHEAST KANSAS

CITY           SKY/WX    TMP DP  RH WIND       PRES   REMARKS
CONCORDIA      CLOUDY    86  70  58 S23G31    29.88F
EMPORIA        PTSUNNY   82  73  74 S22G28    29.98F
LAWRENCE       CLOUDY    82  73  74 S14       30.00F
MANHATTAN      PTSUNNY   85  73  67 S14G33    29.91F
MARYSVILLE     CLOUDY    81  72  74 S16G22    29.92F
OLATHE IND     CLOUDY    80  72  76 S14G25    30.03F
OLATHE EXE     CLOUDY    77  71  82 S14G24    30.04F
SALINA         MOSUNNY   88  71  57 S23G40    29.89F
TOPEKA BILLARD CLOUDY    83  72  69 S18G25    29.97F
TOPEKA FORBES  CLOUDY    83  73  72 S21G30    29.97F
$$




USA.gov is the U.S. government's official web portal to all federal, state and local government web resources and services.